Location: Middle Street
(51.7167°N, 0.0333°E)
Time: 05:51:49
(UTC+00:00)

Cosmos 2263 Rocket - Visible Passes

Search period start: 13 May 2021 00:00
Search period end: 23 May 2021 00:00
Orbit: 824 x 848 km, 71.0° (Epoch: 12 May)

Date Brightness Start Highest point End Pass type
(mag) Time Alt. Az. Time Alt. Az. Time Alt. Az.
13 May 4.5 01:24:07 10° NNW 01:28:46 25° NE 01:33:25 10° E visible
13 May 2.2 03:07:44 10° NNW 03:13:25 87° WSW 03:19:06 10° SSE visible
13 May 5.4 21:36:44 10° NW 21:39:03 12° NNW 21:41:24 10° N visible
13 May 5.4 23:24:02 10° N 23:25:46 11° NNE 23:27:31 10° NNE visible
14 May 4.6 01:07:22 10° NNW 01:11:55 24° NE 01:16:29 10° E visible
14 May 2.3 02:50:57 10° NNW 02:56:38 88° NE 03:02:20 10° SSE visible
14 May 5.3 21:19:42 10° NW 21:22:10 13° NNW 21:24:39 10° N visible
14 May 5.4 23:07:15 10° N 23:08:52 11° N 23:10:29 10° NNE visible
15 May 4.6 00:50:36 10° NNW 00:55:03 23° NE 00:59:32 10° E visible
15 May 2.3 02:34:10 10° NNW 02:39:51 83° ENE 02:45:33 10° SSE visible
15 May 5.2 21:02:40 10° NW 21:05:16 13° NNW 21:07:53 10° N visible
15 May 5.3 22:50:28 10° N 22:51:58 11° N 22:53:28 10° NNE visible
16 May 4.6 00:33:50 10° NNW 00:38:13 22° NE 00:42:35 10° E visible
16 May 2.4 02:17:23 10° NNW 02:23:04 78° ENE 02:28:45 10° SE visible
16 May 5.2 20:45:39 10° NW 20:48:23 14° NNW 20:51:08 10° N visible
16 May 5.3 22:33:41 10° N 22:35:04 11° N 22:36:26 10° NNE visible
17 May 4.6 00:17:05 10° NNW 00:21:21 21° NE 00:25:38 10° E visible
17 May 2.4 02:00:36 10° NNW 02:06:17 74° ENE 02:11:57 10° SE visible
17 May 5.1 20:28:37 10° NW 20:31:30 14° NNW 20:34:23 10° N visible
17 May 5.3 22:16:53 10° N 22:18:10 11° N 22:19:26 10° NNE visible
18 May 4.7 00:00:20 10° NNW 00:04:29 20° NNE 00:08:40 10° E visible
18 May 2.5 01:43:50 10° NNW 01:49:29 69° ENE 01:55:09 10° SE visible
18 May 5.3 22:00:05 10° N 22:01:16 11° N 22:02:26 10° NNE visible
18 May 4.7 23:43:34 10° NNW 23:47:38 20° NNE 23:51:42 10° ENE visible
19 May 2.6 01:27:03 10° NNW 01:32:41 65° NE 01:38:20 10° SE visible
19 May 3.2 03:11:34 10° NW 03:16:13 27° WSW 03:20:51 10° SSW visible
19 May 5.3 21:43:15 10° N 21:44:21 10° N 21:45:27 10° NNE visible
19 May 4.7 23:26:49 10° NNW 23:30:46 19° NNE 23:34:44 10° ENE visible
20 May 2.7 01:10:17 10° NNW 01:15:54 61° NE 01:21:31 10° SE visible
20 May 3.1 02:54:43 10° NW 02:59:29 29° WSW 03:04:15 10° SSW visible
20 May 5.2 21:26:25 10° N 21:27:27 10° N 21:28:30 10° NNE visible
20 May 4.7 23:10:04 10° NNW 23:13:54 18° NNE 23:17:45 10° ENE visible
21 May 2.8 00:53:30 10° NNW 00:59:06 57° NE 01:04:42 10° SE visible
21 May 3.0 02:37:52 10° NW 02:42:46 31° WSW 02:47:38 10° SSW visible
21 May 5.2 21:09:33 10° N 21:10:32 10° N 21:11:32 10° NNE visible
21 May 4.7 22:53:18 10° NNW 22:57:02 18° NNE 23:00:46 10° ENE visible
22 May 2.9 00:36:44 10° NNW 00:42:18 54° NE 00:47:51 10° SE visible
22 May 3.0 02:21:01 10° NW 02:26:01 33° WSW 02:30:53 11° SSW visible
22 May 5.2 20:52:40 10° N 20:53:38 10° N 20:54:38 10° N visible
22 May 4.7 22:36:34 10° NNW 22:40:10 17° NNE 22:43:47 10° ENE visible
